Weather Roundup
Issued by NWS

Home | Current Version | Previous Version | Text Only | Print | Product List | Glossary On
Versions: 1 2 3 4 5 6 7 8 9 10 11 12 13 14 15 16 17 18 19 20 21 22 23 24 25 26 27 28 29 30 31 32 33 34 35 36 37 38 39 40 41 42 43 44 45 46 47 48 49 50
000
NZUS93 KARX 270010
HRRWXR

CURRENT HOURLY OBSERVATIONS ACROSS
MUCH OF THE UPPER MISSISSIPPI VALLEY
NATIONAL WEATHER SERVICE LA CROSSE WI
700 PM CDT TUE JUL 26 2016


...SOUTHEAST MINNESOTA...


CITY           SKY/WX    TMP DP  RH WIND       PRES   REMARKS
ROCHESTER      SUNNY     82  70  66 SW6       30.03F
ROCHESTER/MAYO FAIR      85  66  53 SW8       30.02F
WINONA         SUNNY     86  64  48 SW6       29.99S
AUSTIN         SUNNY     81  68  65 SW5       30.02F
ALBERT LEA     SUNNY     82  68  61 SW5       30.01F
DODGE CENTER   SUNNY     82  66  57 SW8       30.02F
PRESTON        SUNNY     82  68  62 SW3       30.04S
OWATONNA       SUNNY     82  68  61 SW5       30.01F
FARIBAULT      SUNNY     82  70  65 S5        30.00F
$$

...ELSEWHERE IN MINNESOTA...


CITY           SKY/WX    TMP DP  RH WIND       PRES   REMARKS
MINNEAPOLIS    PTSUNNY   87  65  47 SW15      29.96F
INTNL FALLS    PTSUNNY   79  57  46 N10       29.97R
DULUTH         PTSUNNY   79  68  69 NW6       29.96F
RED WING       SUNNY     88  66  48 W8        29.96S HX  90
REDWOOD FALLS  PTSUNNY   85  67  54 S8        29.96F
MANKATO        SUNNY     82  68  61 S7        30.00S
WORTHINGTON    MOSUNNY   80  69  69 S8        30.02
FAIRMONT       SUNNY     82  68  61 S6        30.00F
$$

...SOUTHWEST WISCONSIN...


CITY           SKY/WX    TMP DP  RH WIND       PRES   REMARKS
LA CROSSE      SUNNY     87  67  51 SW8       29.99S HX  90
PRAIRIE DU CHI SUNNY     83  63  50 CALM      30.01S
BOSCOBEL       SUNNY     86  67  52 W5        30.01S
LONE ROCK      SUNNY     84  67  56 SW3       30.01S
PLATTEVILLE    SUNNY     82  68  62 W3        30.04S
FORT MC COY    SUNNY     84  67  57 SW5       30.01S
CAMP DOUGLAS   MOSUNNY   82  68  61 W8        30.00S
MAUSTON-NEW LI CLEAR     84  69  60 SW5       29.99F
VIROQUA        FAIR      82  67  59 SW5       30.03F
WIS DELLS      SUNNY     83  65  54 SW5       30.01F
$$

...ELSEWHERE IN WISCONSIN...


CITY           SKY/WX    TMP DP  RH WIND       PRES   REMARKS
MILWAUKEE      MOSUNNY   82  59  45 SE8       30.01R
MADISON        MOSUNNY   85  65  51 CALM      30.01S
GREEN BAY      SUNNY     83  69  62 SW6       29.96S
EAU CLAIRE     SUNNY     86  65  49 W9        29.96F
BLACK RVR FLS  FAIR      85  65  51 SW5       29.98F
MEDFORD        SUNNY     81  67  62 SW8       29.99F
WAUSAU         SUNNY     83  65  54 W8        29.97F
WIS RAPIDS     SUNNY     86  64  47 W6        30.00S
MARSHFIELD     SUNNY     83  65  54 SW8       29.99F
RICE LAKE      SUNNY     82  67  59 SW5       29.98F
$$

...NORTHEAST IOWA...


CITY           SKY/WX    TMP DP  RH WIND       PRES   REMARKS
WATERLOO       SUNNY     83  64  52 CALM      30.01F
DUBUQUE        SUNNY     83  62  49 E3        30.04S
DECORAH        SUNNY     82  68  61 CALM      30.02S
MASON CITY     SUNNY     82  68  62 S6        30.04F
CHARLES CITY   SUNNY     81  72  74 CALM      30.04F
OELWEIN        SUNNY     82  66  57 CALM      30.04F
$$

...ELSEWHERE IN IOWA...


CITY           SKY/WX    TMP DP  RH WIND       PRES   REMARKS
DES MOINES     MOSUNNY   84  65  52 E8        30.01F
IOWA CITY      MOSUNNY   83  65  54 E6        30.03S
FORT DODGE     SUNNY     81  68  65 E6        30.03F
MARSHALLTOWN   SUNNY     83  67  58 E5        30.03S
CEDAR RAPIDS   SUNNY     82  69  64 E5        30.02S
$$

...NORTHERN ILLINOIS...


CITY           SKY/WX    TMP DP  RH WIND       PRES   REMARKS
CHICAGO-OHARE  MOSUNNY   83  63  50 E7        30.00R
CHICAGO-MIDWAY MOSUNNY   84  62  47 E9        30.00R
MOLINE         SUNNY     84  64  50 E9        30.00S
ROCKFORD       MOSUNNY   84  63  49 S5        30.02S
PEORIA         CLOUDY    85  67  54 N3        30.00S
$$

NOTE: "FAIR" INDICATES FEW OR NO CLOUDS BELOW 12,000 FEET WITH NO
SIGNIFICANT WEATHER AND/OR OBSTRUCTIONS TO VISIBILITY. WIND
SPEEDS ARE IN MILES-PER-HOUR.




USA.gov is the U.S. government's official web portal to all federal, state and local government web resources and services.